Flag for U.S.A. Weather past 2 weeks in Salt Lake City, Utah, U.S.A.

Now
46 °F

Broken clouds.


Feels Like: 41 °F
Forecast: 43 / 54 °F
Wind: 10 mph from West

Location: Salt Lake City International Airport


UV Index: 5 (Moderate)

Visibility: 10 mi


Pressure: 30.02 "Hg

Humidity: 46%

Dew point: 26 °F

Location of Salt Lake CityLocation

Historic Weather in Salt Lake City

°F

Salt Lake City temperature yesterday

Maximum temperature yesterday: 76 °F (at 4:53 PM)
Minimum temperature yesterday: 40 °F (at 10:53 PM)
Average temperature yesterday: 63 °F

Past Weeks' High & Low Weather Summary

 TemperatureHumidityPressure
High79 °F (Apr 9, 12:53 PM)100% (Apr 19, 4:53 AM)30.32 "Hg (Apr 19, 4:53 AM)
Low30 °F (Apr 14, 5:53 AM)11% (Apr 15, 4:53 PM)29.31 "Hg (Apr 22, 4:53 PM)
Average57 °F39%29.89 "Hg
* Reported Apr 8 12:53 PM — Apr 23 11:53 AM, Salt Lake City, Weather by CustomWeather, © 2014

Note: Actual official high and low records may vary slightly from our data, if they occured in-between our weather recording intervals... More about our weather records

Advertising

Historic Weather Conditions — Data for Previous 24 hours

 ConditionsComfort  
Time TempWeatherWind HumidityBarometerVisibility
11:53 AM
Apr 23
46 °FBroken clouds.10 mph46%30.02 "Hg10 mi
10:53 AM45 °FScattered clouds.9 mph44%30.01 "Hg10 mi
9:53 AM45 °FScattered clouds.15 mph45%29.99 "Hg10 mi
8:53 AM43 °FScattered clouds.14 mph51%29.98 "Hg10 mi
7:53 AM41 °FScattered clouds.9 mph60%29.96 "Hg10 mi
6:53 AM41 °FPartly cloudy.7 mph62%29.93 "Hg10 mi
5:53 AM40 °FPartly cloudy.7 mph97%29.89 "Hg10 mi
4:53 AM42 °FPartly cloudy.9 mph79%29.83 "Hg10 mi
3:53 AM42 °FPassing clouds.8 mph82%29.82 "Hg10 mi
2:53 AM41 °FLight rain. Overcast.13 mph100%29.81 "Hg8 mi
1:53 AM41 °FLight rain. Mostly cloudy.3 mph100%29.80 "Hg7 mi
12:53 AM41 °FOvercast.5 mph100%29.79 "Hg10 mi
11:53 PM
Apr 22
40 °FOvercast.8 mph100%29.78 "Hg10 mi
10:53 PM40 °FLight rain. Overcast.13 mph100%29.80 "Hg9 mi
9:53 PM42 °FRain. Fog.16 mph100%29.80 "Hg6 mi
8:53 PM44 °FLight rain. Mostly cloudy.17 mph100%29.73 "Hg9 mi
7:53 PM47 °FLight rain. Mostly cloudy.23 mph86%29.68 "Hg3 mi
7:00 PM54 °FMostly cloudy.20 mph53%29.75 "Hg3 mi
5:53 PM60 °FMostly cloudy.32 mph42%29.42 "Hg1 mi
4:53 PM76 °FMostly cloudy.38 mph16%29.31 "Hg5 mi
3:53 PM74 °FMostly cloudy.28 mph17%29.35 "Hg10 mi
2:53 PM74 °FBroken clouds.21 mph18%29.39 "Hg10 mi
1:53 PM73 °FMostly cloudy.29 mph19%29.44 "Hg10 mi
12:53 PM72 °FMostly cloudy.18 mph22%29.48 "Hg10 mi
Weather by CustomWeather, © 2014

See weather overview